This is the latest recevied weather packets stored in our database for station/object E20YUC-1. If no packets are shown the sender has not sent any weather packets the latest 10 day(s).
| Time | Temp. | Humidity | Pressure | Rain* | Wind** | Luminosity | Snow |
|---|---|---|---|---|---|---|---|
| 1787608163 | 27.78° C | 74% | 994.4 hPa | 0 mm | 1.34 m/s, 0° | - | - |
| 1787607865 | 27.78° C | 74% | 994.5 hPa | 0 mm | 1.34 m/s, 0° | - | - |
| 1787607563 | 27.78° C | 74% | 994.4 hPa | 0 mm | 0 m/s | - | - |
| 1787607263 | 27.78° C | 74% | 994.4 hPa | 0 mm | 1.79 m/s, 0° | - | - |
| 1787606663 | 27.78° C | 74% | 994.4 hPa | 0 mm | 2.68 m/s, 0° | - | - |
| 1787606364 | 27.78° C | 74% | 994.3 hPa | 0 mm | 2.24 m/s, 0° | - | - |
| 1787605762 | 27.78° C | 73% | 994.3 hPa | 0 mm | 2.24 m/s, 0° | - | - |
| 1787605162 | 28.33° C | 73% | 994.4 hPa | 0 mm | 0 m/s | - | - |
| 1787604864 | 28.33° C | 73% | 994.4 hPa | 0 mm | 0.89 m/s, 0° | - | - |
| 1787604262 | 28.33° C | 73% | 994.3 hPa | 0 mm | 0 m/s | - | - |
| 1787603662 | 28.33° C | 73% | 994.3 hPa | 0 mm | 1.34 m/s, 0° | - | - |
| 1787603364 | 28.33° C | 73% | 994.3 hPa | 0 mm | 2.24 m/s, 0° | - | - |
| 1787603062 | 28.33° C | 73% | 994.3 hPa | 0 mm | 1.79 m/s, 0° | - | - |
| 1787602762 | 28.33° C | 73% | 994.3 hPa | 0 mm | 1.34 m/s, 0° | - | - |
| 1787602162 | 28.33° C | 72% | 994.3 hPa | 0 mm | 0 m/s | - | - |
| 1787601864 | 28.33° C | 72% | 994.3 hPa | 0 mm | 0 m/s | - | - |
| 1787601262 | 28.33° C | 72% | 994.2 hPa | 0 mm | 1.79 m/s, 0° | - | - |
| 1787600662 | 28.33° C | 72% | 994.5 hPa | 0 mm | 3.13 m/s, 0° | - | - |
| 1787600363 | 28.33° C | 72% | 994.5 hPa | 0 mm | 1.79 m/s, 0° | - | - |
| 1787600062 | 28.33° C | 72% | 994.5 hPa | 0 mm | 0 m/s | - | - |
| 1787599761 | 28.33° C | 72% | 994.5 hPa | 0 mm | 0 m/s | - | - |
| 1787599161 | 28.33° C | 71% | 994.5 hPa | 0 mm | 0 m/s | - | - |
| 1787598863 | 28.33° C | 71% | 994.7 hPa | 0 mm | 2.68 m/s, 0° | - | - |
| 1787598561 | 28.33° C | 71% | 994.7 hPa | 0 mm | 0.89 m/s, 0° | - | - |
| 1787597961 | 28.89° C | 71% | 994.7 hPa | 0 mm | 3.13 m/s, 0° | - | - |
* Rain latest hour (hover to see other rain measurements)
** Current wind speed in m/s (hover to see current wind gust speed)